This is the latest recevied weather packets stored in our database for station/object M0JUI-1. If no packets are shown the sender has not sent any weather packets the latest 10 day(s).
| Time | Temp. | Humidity | Pressure | Rain* | Wind** | Luminosity | Snow |
|---|---|---|---|---|---|---|---|
| 1778179900 | 11.67° C | 99% | 1014.9 hPa | 0 mm | - | 4 W/m² | - |
| 1778179599 | 11.67° C | 99% | 1015 hPa | 0 mm | - | 6 W/m² | - |
| 1778179299 | 11.67° C | 99% | 1015 hPa | 0 mm | - | 7 W/m² | - |
| 1778178999 | 11.67° C | 99% | 1015 hPa | 0 mm | - | 6 W/m² | - |
| 1778178699 | 11.67° C | 99% | 1014.9 hPa | 0 mm | - | 4 W/m² | - |
| 1778178399 | 12.22° C | 99% | 1015 hPa | 0 mm | - | 4 W/m² | - |
| 1778178100 | 12.22° C | 98% | 1015 hPa | 0 mm | - | 4 W/m² | - |
| 1778177799 | 12.22° C | 95% | 1015.1 hPa | 0 mm | - | 4 W/m² | - |
| 1778177500 | 12.22° C | 95% | 1014.9 hPa | 0 mm | - | 4 W/m² | - |
| 1778177187 | 12.78° C | 92% | 1014.8 hPa | 0 mm | - | 6 W/m² | - |
| 1778176887 | 12.78° C | 91% | 1014.6 hPa | 0 mm | - | 9 W/m² | - |
| 1778176588 | 12.78° C | 87% | 1014.6 hPa | 0 mm | - | 10 W/m² | - |
| 1778176287 | 12.78° C | 85% | 1014.7 hPa | 0 mm | - | 12 W/m² | - |
| 1778175987 | 13.33° C | 84% | 1014.6 hPa | 0 mm | - | 11 W/m² | - |
| 1778175687 | 13.33° C | 84% | 1014.6 hPa | 0 mm | - | 11 W/m² | - |
| 1778175387 | 13.33° C | 83% | 1014.6 hPa | 0 mm | - | 16 W/m² | - |
| 1778175087 | 13.33° C | 82% | 1014.4 hPa | 0 mm | - | 25 W/m² | - |
| 1778174787 | 13.33° C | 84% | 1014.6 hPa | 0 mm | - | 19 W/m² | - |
| 1778174487 | 13.33° C | 84% | 1014.5 hPa | 0 mm | - | 12 W/m² | - |
| 1778174187 | 13.33° C | 83% | 1014.7 hPa | 0 mm | - | 14 W/m² | - |
| 1778173887 | 13.33° C | 82% | 1014.6 hPa | 0 mm | - | 19 W/m² | - |
| 1778173587 | 13.33° C | 81% | 1014.7 hPa | 0 mm | - | 24 W/m² | - |
| 1778173287 | 13.33° C | 80% | 1014.5 hPa | 0 mm | - | 30 W/m² | - |
| 1778172987 | 13.89° C | 80% | 1014.5 hPa | 0 mm | - | 25 W/m² | - |
| 1778172675 | 13.89° C | 79% | 1014.6 hPa | 0 mm | - | 27 W/m² | - |
* Rain latest hour (hover to see other rain measurements)
** Current wind speed in m/s (hover to see current wind gust speed)